Powrót do katalogu

THORAD AGENA D DEB

AktywnyPO
NORAD 5000·DEBRIS·🇺🇸 United States

Wystrzelony Apr 8, 1970 z Vandenberg Space Force Base

Loading…

Następne Przeloty (najbliższe 24 godziny)

TLE

ŚwieżeSource: Space-Track

Epoka: Sep 14, 2026, 03:45 UTC

1 05000U 70025HW  26257.15670959  .00000545  00000-0  17823-2 0  9990
2 05000  99.7800 133.5407 0488745 126.4315  24.6412 12.70715410602961

Śledź THORAD AGENA D DEB w czasie rzeczywistym z AllMySat

Download on the App Store